Time,TemperatureF,DewpointF,PressureIn,WindDirection,WindDirectionDegrees,WindSpeedMPH,WindSpeedGustMPH,Humidity,HourlyPrecipIn,Conditions,Clouds,dailyrainin,SoftwareType,DateUTC
2013-04-02 00:00:00,32.4,21.2,29.69,WNW,296,3.0,12.0,43,0.00,,,0.58,meteohub,2013-04-02 04:00:00,
2013-04-02 00:02:00,32.2,20.7,29.69,NW,307,2.0,12.0,43,0.00,,,0.58,meteohub,2013-04-02 04:02:00,
2013-04-02 00:05:00,32.2,20.7,29.69,WNW,294,4.0,11.0,43,0.00,,,0.00,meteohub,2013-04-02 04:05:00,
2013-04-02 00:07:00,32.2,20.7,29.69,WNW,294,1.0,11.0,43,0.00,,,0.00,meteohub,2013-04-02 04:07:00,
2013-04-02 00:12:00,32.0,20.5,29.69,NW,305,3.0,11.0,43,0.00,,,0.00,meteohub,2013-04-02 04:12:00,
2013-04-02 00:17:00,31.8,20.3,29.69,NW,308,1.0,12.0,43,0.00,,,0.00,meteohub,2013-04-02 04:17:00,
2013-04-02 00:22:00,31.8,20.7,29.69,WNW,294,3.0,12.0,43,0.00,,,0.00,meteohub,2013-04-02 04:22:00,
2013-04-02 00:28:00,31.6,20.1,29.69,WNW,293,5.0,10.0,43,0.00,,,0.00,meteohub,2013-04-02 04:28:00,
2013-04-02 00:33:00,31.6,20.1,29.70,WNW,290,4.0,11.0,43,0.00,,,0.00,meteohub,2013-04-02 04:33:00,
2013-04-02 00:38:00,31.6,20.5,29.70,WNW,294,2.0,11.0,43,0.00,,,0.00,meteohub,2013-04-02 04:38:00,
2013-04-02 00:44:00,31.5,19.9,29.70,WNW,285,4.0,11.0,43,0.00,,,0.00,meteohub,2013-04-02 04:44:00,
2013-04-02 00:50:00,31.5,20.3,29.70,WNW,302,2.0,8.0,43,0.00,,,0.00,meteohub,2013-04-02 04:50:00,
2013-04-02 00:55:00,31.3,20.1,29.71,WNW,294,4.0,8.0,43,0.00,,,0.00,meteohub,2013-04-02 04:55:00,
2013-04-02 01:00:00,31.3,20.5,29.71,WNW,298,0.0,8.0,43,0.00,,,0.00,meteohub,2013-04-02 05:00:00,
2013-04-02 01:05:00,31.1,19.9,29.71,WNW,298,0.0,8.0,43,0.00,,,0.00,meteohub,2013-04-02 05:05:00,
2013-04-02 01:10:00,30.9,20.1,29.72,WNW,298,2.0,6.0,43,0.00,,,0.00,meteohub,2013-04-02 05:10:00,
2013-04-02 01:15:00,30.9,19.4,29.72,WNW,286,1.0,10.0,43,0.00,,,0.00,meteohub,2013-04-02 05:15:00,
2013-04-02 01:20:00,30.9,19.8,29.72,WNW,286,6.0,10.0,43,0.00,,,0.00,meteohub,2013-04-02 05:20:00,
2013-04-02 01:26:00,30.9,18.7,29.72,WNW,294,2.0,10.0,43,0.00,,,0.00,meteohub,2013-04-02 05:26:00,
2013-04-02 01:31:00,31.1,18.1,29.72,WNW,294,1.0,14.0,43,0.00,,,0.00,meteohub,2013-04-02 05:31:00,
2013-04-02 01:36:00,30.9,18.3,29.73,WNW,290,2.0,14.0,43,0.00,,,0.00,meteohub,2013-04-02 05:36:00,
2013-04-02 01:42:00,30.7,18.1,29.73,WNW,292,1.0,14.0,43,0.00,,,0.00,meteohub,2013-04-02 05:42:00,
2013-04-02 01:47:00,30.7,18.1,29.73,WNW,292,0.0,8.0,43,0.00,,,0.00,meteohub,2013-04-02 05:47:00,
2013-04-02 01:52:00,30.6,18.3,29.73,WNW,292,1.0,6.0,43,0.00,,,0.00,meteohub,2013-04-02 05:52:00,
2013-04-02 01:57:00,30.4,17.8,29.73,WNW,292,0.0,5.0,43,0.00,,,0.00,meteohub,2013-04-02 05:57:00,
2013-04-02 02:02:00,30.2,17.6,29.73,WNW,292,2.0,5.0,43,0.00,,,0.00,meteohub,2013-04-02 06:02:00,
2013-04-02 02:07:00,30.0,17.4,29.73,WNW,295,1.0,9.0,43,0.00,,,0.00,meteohub,2013-04-02 06:07:00,
2013-04-02 02:12:00,30.0,17.8,29.73,WNW,294,0.0,9.0,43,0.00,,,0.00,meteohub,2013-04-02 06:12:00,
2013-04-02 02:17:00,30.0,19.0,29.73,WNW,293,1.0,9.0,43,0.00,,,0.00,meteohub,2013-04-02 06:17:00,
2013-04-02 02:22:00,29.8,19.6,29.73,WNW,294,5.0,7.0,43,0.00,,,0.00,meteohub,2013-04-02 06:22:00,
2013-04-02 02:28:00,29.7,19.8,29.73,WNW,294,5.0,9.0,43,0.00,,,0.00,meteohub,2013-04-02 06:28:00,
2013-04-02 02:33:00,29.7,20.1,29.73,WNW,292,6.0,11.0,43,0.00,,,0.00,meteohub,2013-04-02 06:33:00,
2013-04-02 02:38:00,29.5,20.3,29.73,WNW,295,1.0,11.0,43,0.00,,,0.00,meteohub,2013-04-02 06:38:00,
2013-04-02 02:43:00,29.3,20.1,29.73,WNW,300,3.0,11.0,43,0.00,,,0.00,meteohub,2013-04-02 06:43:00,
2013-04-02 02:49:00,29.3,20.1,29.73,WNW,292,3.0,11.0,43,0.00,,,0.00,meteohub,2013-04-02 06:49:00,
2013-04-02 02:54:00,29.1,19.9,29.73,NW,315,2.0,11.0,43,0.00,,,0.00,meteohub,2013-04-02 06:54:00,
2013-04-02 02:59:00,29.1,19.9,29.73,WNW,297,2.0,11.0,43,0.00,,,0.00,meteohub,2013-04-02 06:59:00,
2013-04-02 03:04:00,29.1,20.3,29.73,WNW,298,0.0,8.0,43,0.00,,,0.00,meteohub,2013-04-02 07:04:00,
2013-04-02 03:09:00,28.9,19.8,29.73,NNW,327,3.0,8.0,43,0.00,,,0.00,meteohub,2013-04-02 07:09:00,
2013-04-02 03:14:00,28.9,19.4,29.74,WNW,300,2.0,9.0,43,0.00,,,0.00,meteohub,2013-04-02 07:14:00,
2013-04-02 03:20:00,28.8,19.6,29.73,WNW,300,3.0,9.0,43,0.00,,,0.00,meteohub,2013-04-02 07:20:00,
2013-04-02 03:25:00,28.6,19.4,29.74,WNW,301,2.0,7.0,43,0.00,,,0.00,meteohub,2013-04-02 07:25:00,
2013-04-02 03:30:00,28.6,19.8,29.73,WNW,302,7.0,7.0,43,0.00,,,0.00,meteohub,2013-04-02 07:30:00,
2013-04-02 03:35:00,28.6,19.4,29.73,NW,308,5.0,11.0,43,0.00,,,0.00,meteohub,2013-04-02 07:35:00,
2013-04-02 03:40:00,28.6,19.4,29.74,NW,309,2.0,11.0,43,0.00,,,0.00,meteohub,2013-04-02 07:40:00,
2013-04-02 03:45:00,28.6,19.4,29.73,WNW,294,3.0,11.0,43,0.00,,,0.00,meteohub,2013-04-02 07:45:00,
2013-04-02 03:51:00,28.6,19.4,29.74,NW,306,1.0,12.0,43,0.00,,,0.00,meteohub,2013-04-02 07:51:00,
2013-04-02 03:56:00,28.6,19.0,29.74,NW,308,3.0,12.0,43,0.00,,,0.00,meteohub,2013-04-02 07:56:00,
2013-04-02 04:01:00,28.4,19.2,29.74,WNW,299,4.0,12.0,43,0.00,,,0.00,meteohub,2013-04-02 08:01:00,
2013-04-02 04:07:00,28.6,19.0,29.74,NW,308,2.0,12.0,43,0.00,,,0.00,meteohub,2013-04-02 08:07:00,
2013-04-02 04:12:00,28.6,19.0,29.74,NNW,342,10.0,12.0,43,0.00,,,0.00,meteohub,2013-04-02 08:12:00,
2013-04-02 04:17:00,28.4,18.5,29.74,WNW,296,5.0,14.0,44,0.00,,,0.00,meteohub,2013-04-02 08:17:00,
2013-04-02 04:23:00,28.2,18.3,29.75,NW,308,1.0,14.0,44,0.00,,,0.00,meteohub,2013-04-02 08:23:00,
2013-04-02 04:28:00,28.2,18.7,29.75,WNW,294,1.0,14.0,44,0.00,,,0.00,meteohub,2013-04-02 08:28:00,
2013-04-02 04:33:00,28.0,18.5,29.75,WNW,297,3.0,9.0,44,0.00,,,0.00,meteohub,2013-04-02 08:33:00,
2013-04-02 04:38:00,27.9,18.7,29.75,NW,305,2.0,9.0,43,0.00,,,0.00,meteohub,2013-04-02 08:38:00,
2013-04-02 04:43:00,27.7,18.5,29.75,NW,304,6.0,8.0,43,0.00,,,0.00,meteohub,2013-04-02 08:43:00,
2013-04-02 04:48:00,27.5,18.3,29.75,NW,305,3.0,8.0,44,0.00,,,0.00,meteohub,2013-04-02 08:48:00,
2013-04-02 04:53:00,27.3,17.8,29.75,WNW,297,3.0,9.0,44,0.00,,,0.00,meteohub,2013-04-02 08:53:00,
2013-04-02 04:58:00,27.1,17.2,29.75,WNW,292,6.0,9.0,44,0.00,,,0.00,meteohub,2013-04-02 08:58:00,
2013-04-02 05:04:00,27.1,17.2,29.76,WNW,296,3.0,11.0,44,0.00,,,0.00,meteohub,2013-04-02 09:04:00,
2013-04-02 05:09:00,27.0,17.1,29.76,NNW,337,7.0,11.0,44,0.00,,,0.00,meteohub,2013-04-02 09:09:00,
2013-04-02 05:14:00,27.0,17.1,29.76,WNW,293,3.0,11.0,44,0.00,,,0.00,meteohub,2013-04-02 09:14:00,
2013-04-02 05:19:00,26.8,16.5,29.76,WNW,292,4.0,16.0,43,0.00,,,0.00,meteohub,2013-04-02 09:19:00,
2013-04-02 05:25:00,26.8,16.5,29.76,WNW,292,2.0,11.0,43,0.00,,,0.00,meteohub,2013-04-02 09:25:00,
2013-04-02 05:30:00,26.6,16.0,29.76,WNW,296,1.0,9.0,42,0.00,,,0.00,meteohub,2013-04-02 09:30:00,
2013-04-02 05:35:00,26.4,15.6,29.76,NNW,331,4.0,11.0,42,0.00,,,0.00,meteohub,2013-04-02 09:35:00,
2013-04-02 05:40:00,26.4,14.7,29.76,WNW,299,1.0,11.0,42,0.00,,,0.00,meteohub,2013-04-02 09:40:00,
2013-04-02 05:45:00,26.2,14.5,29.76,WNW,296,3.0,11.0,41,0.00,,,0.00,meteohub,2013-04-02 09:45:00,
2013-04-02 05:50:00,26.2,14.2,29.77,WNW,292,3.0,11.0,41,0.00,,,0.00,meteohub,2013-04-02 09:50:00,
2013-04-02 05:56:00,26.1,13.6,29.77,NW,304,4.0,9.0,41,0.00,,,0.00,meteohub,2013-04-02 09:56:00,
2013-04-02 06:01:00,26.1,13.3,29.77,WNW,302,0.0,10.0,40,0.00,,,0.00,meteohub,2013-04-02 10:01:00,
2013-04-02 06:06:00,25.9,13.1,29.77,WNW,302,3.0,10.0,40,0.00,,,0.00,meteohub,2013-04-02 10:06:00,
2013-04-02 06:11:00,25.9,13.1,29.77,WNW,298,1.0,10.0,40,0.00,,,0.00,meteohub,2013-04-02 10:11:00,
2013-04-02 06:16:00,25.7,12.9,29.77,WNW,292,1.0,6.0,40,0.00,,,0.00,meteohub,2013-04-02 10:16:00,
2013-04-02 06:21:00,25.5,13.1,29.77,WNW,292,1.0,6.0,41,0.00,,,0.00,meteohub,2013-04-02 10:21:00,
2013-04-02 06:27:00,25.5,12.7,29.77,WNW,301,1.0,6.0,41,0.00,,,0.00,meteohub,2013-04-02 10:27:00,
2013-04-02 06:32:00,25.3,13.1,29.78,WNW,300,4.0,6.0,41,0.00,,,0.00,meteohub,2013-04-02 10:32:00,
2013-04-02 06:37:00,25.3,12.6,29.78,NW,305,4.0,6.0,41,0.00,,,0.00,meteohub,2013-04-02 10:37:00,
2013-04-02 06:42:00,25.3,13.1,29.78,NW,305,2.0,7.0,41,0.00,,,0.00,meteohub,2013-04-02 10:42:00,
2013-04-02 06:47:00,25.3,13.1,29.78,NW,305,2.0,7.0,42,0.00,,,0.00,meteohub,2013-04-02 10:47:00,
2013-04-02 06:53:00,25.2,12.9,29.79,NW,305,1.0,7.0,42,0.00,,,0.00,meteohub,2013-04-02 10:53:00,
2013-04-02 06:58:00,25.2,12.9,29.79,WNW,289,1.0,5.0,42,0.00,,,0.00,meteohub,2013-04-02 10:58:00,
2013-04-02 07:03:00,25.2,13.3,29.79,WNW,290,6.0,7.0,43,0.00,,,0.00,meteohub,2013-04-02 11:03:00,
2013-04-02 07:08:00,25.3,13.1,29.79,WNW,290,1.0,7.0,43,0.00,,,0.00,meteohub,2013-04-02 11:08:00,
2013-04-02 07:13:00,25.3,13.1,29.79,WNW,290,3.0,7.0,43,0.00,,,0.00,meteohub,2013-04-02 11:13:00,
2013-04-02 07:18:00,25.5,13.1,29.79,WNW,290,2.0,6.0,43,0.00,,,0.00,meteohub,2013-04-02 11:18:00,
2013-04-02 07:24:00,25.5,12.4,29.79,WNW,290,1.0,6.0,43,0.00,,,0.00,meteohub,2013-04-02 11:24:00,
2013-04-02 07:29:00,25.7,12.6,29.79,WNW,290,0.0,7.0,43,0.00,,,0.00,meteohub,2013-04-02 11:29:00,
2013-04-02 07:34:00,25.9,12.7,29.79,WNW,301,1.0,7.0,43,0.00,,,0.00,meteohub,2013-04-02 11:34:00,
2013-04-02 07:39:00,26.1,12.6,29.79,WNW,300,5.0,7.0,43,0.00,,,0.00,meteohub,2013-04-02 11:39:00,
2013-04-02 07:44:00,26.2,13.1,29.79,WNW,298,2.0,8.0,43,0.00,,,0.00,meteohub,2013-04-02 11:44:00,
2013-04-02 07:49:00,26.6,13.5,29.78,WNW,297,1.0,8.0,43,0.00,,,0.00,meteohub,2013-04-02 11:49:00,
2013-04-02 07:55:00,27.0,13.3,29.79,WNW,298,6.0,7.0,43,0.00,,,0.00,meteohub,2013-04-02 11:55:00,
2013-04-02 08:00:00,27.3,13.3,29.79,SW,230,6.0,7.0,43,0.00,,,0.00,meteohub,2013-04-02 12:00:00,
2013-04-02 08:05:00,27.5,13.5,29.79,West,267,1.0,10.0,44,0.00,,,0.00,meteohub,2013-04-02 12:05:00,
2013-04-02 08:10:00,27.9,13.5,29.79,WNW,294,0.0,11.0,44,0.00,,,0.00,meteohub,2013-04-02 12:10:00,
2013-04-02 08:15:00,28.0,13.1,29.79,WNW,297,6.0,11.0,44,0.00,,,0.00,meteohub,2013-04-02 12:15:00,
2013-04-02 08:20:00,28.0,13.1,29.79,WNW,292,4.0,14.0,44,0.00,,,0.00,meteohub,2013-04-02 12:20:00,
2013-04-02 08:25:00,28.2,13.3,29.79,WNW,298,3.0,14.0,45,0.00,,,0.00,meteohub,2013-04-02 12:25:00,
2013-04-02 08:30:00,28.6,13.1,29.79,WSW,256,5.0,13.0,45,0.00,,,0.00,meteohub,2013-04-02 12:30:00,
2013-04-02 08:35:00,28.6,13.6,29.79,West,270,5.0,16.0,45,0.00,,,0.00,meteohub,2013-04-02 12:35:00,
2013-04-02 08:41:00,28.6,13.1,29.79,West,270,1.0,18.0,45,0.00,,,0.00,meteohub,2013-04-02 12:41:00,
2013-04-02 08:46:00,28.8,13.3,29.79,WNW,300,12.0,18.0,45,0.00,,,0.00,meteohub,2013-04-02 12:46:00,
2013-04-02 08:52:00,28.9,13.5,29.79,WNW,290,5.0,18.0,45,0.00,,,0.00,meteohub,2013-04-02 12:52:00,
2013-04-02 08:57:00,29.3,13.8,29.79,West,273,5.0,13.0,45,0.00,,,0.00,meteohub,2013-04-02 12:57:00,
2013-04-02 09:02:00,29.5,13.6,29.79,WSW,247,3.0,13.0,45,0.00,,,0.00,meteohub,2013-04-02 13:02:00,
2013-04-02 09:07:00,29.5,13.6,29.79,West,280,1.0,13.0,45,0.00,,,0.00,meteohub,2013-04-02 13:07:00,
2013-04-02 09:13:00,29.7,13.3,29.79,SSW,207,0.0,13.0,44,0.00,,,0.00,meteohub,2013-04-02 13:13:00,
2013-04-02 09:18:00,29.8,13.5,29.79,WSW,247,0.0,13.0,44,0.00,,,0.00,meteohub,2013-04-02 13:18:00,
2013-04-02 09:23:00,30.0,13.6,29.79,WSW,244,3.0,10.0,44,0.00,,,0.00,meteohub,2013-04-02 13:23:00,
2013-04-02 09:28:00,29.8,14.0,29.79,West,267,1.0,12.0,44,0.00,,,0.00,meteohub,2013-04-02 13:28:00,
2013-04-02 09:33:00,30.0,13.1,29.79,WNW,295,6.0,15.0,44,0.00,,,0.00,meteohub,2013-04-02 13:33:00,
2013-04-02 09:38:00,29.7,13.3,29.79,West,272,1.0,17.0,44,0.00,,,0.00,meteohub,2013-04-02 13:38:00,
2013-04-02 09:43:00,30.0,14.0,29.80,WNW,286,5.0,17.0,44,0.00,,,0.00,meteohub,2013-04-02 13:43:00,
2013-04-02 09:48:00,30.0,13.1,29.79,WNW,300,4.0,17.0,44,0.00,,,0.00,meteohub,2013-04-02 13:48:00,
2013-04-02 09:53:00,29.7,13.8,29.79,NW,313,4.0,15.0,44,0.00,,,0.00,meteohub,2013-04-02 13:53:00,
2013-04-02 09:59:00,29.5,12.7,29.79,West,279,11.0,15.0,44,0.00,,,0.00,meteohub,2013-04-02 13:59:00,
2013-04-02 10:04:00,29.1,12.4,29.79,NW,310,14.0,14.0,44,0.00,,,0.00,meteohub,2013-04-02 14:04:00,
2013-04-02 10:09:00,29.5,12.7,29.80,WNW,288,2.0,15.0,44,0.00,,,0.00,meteohub,2013-04-02 14:09:00,
2013-04-02 10:14:00,29.8,12.9,29.80,WNW,288,4.0,15.0,44,0.00,,,0.00,meteohub,2013-04-02 14:14:00,
2013-04-02 10:19:00,29.8,12.6,29.79,WNW,293,5.0,15.0,44,0.00,,,0.00,meteohub,2013-04-02 14:19:00,
2013-04-02 10:24:00,29.8,12.6,29.80,West,270,0.0,14.0,44,0.00,,,0.00,meteohub,2013-04-02 14:24:00,
2013-04-02 10:29:00,30.2,13.8,29.79,WSW,245,3.0,14.0,44,0.00,,,0.00,meteohub,2013-04-02 14:29:00,
2013-04-02 10:35:00,30.4,14.0,29.80,WNW,290,0.0,12.0,44,0.00,,,0.00,meteohub,2013-04-02 14:35:00,
2013-04-02 10:40:00,30.2,12.9,29.79,West,278,1.0,11.0,44,0.00,,,0.00,meteohub,2013-04-02 14:40:00,
2013-04-02 10:45:00,30.2,13.8,29.79,WNW,291,2.0,11.0,44,0.00,,,0.00,meteohub,2013-04-02 14:45:00,
2013-04-02 10:50:00,30.4,13.5,29.79,South,183,0.0,11.0,44,0.00,,,0.00,meteohub,2013-04-02 14:50:00,
2013-04-02 10:55:00,31.1,14.5,29.79,West,279,6.0,9.0,44,0.00,,,0.00,meteohub,2013-04-02 14:55:00,
2013-04-02 11:00:00,31.5,14.9,29.79,NNW,327,3.0,9.0,44,0.00,,,0.00,meteohub,2013-04-02 15:00:00,
2013-04-02 11:05:00,31.3,14.4,29.79,WNW,292,3.0,11.0,44,0.00,,,0.00,meteohub,2013-04-02 15:05:00,
2013-04-02 11:11:00,31.5,14.9,29.79,WNW,298,2.0,11.0,44,0.00,,,0.00,meteohub,2013-04-02 15:11:00,
2013-04-02 11:16:00,32.0,15.1,29.79,WNW,294,4.0,11.0,44,0.00,,,0.00,meteohub,2013-04-02 15:16:00,
2013-04-02 11:21:00,32.4,14.4,29.78,WNW,290,5.0,9.0,45,0.00,,,0.00,meteohub,2013-04-02 15:21:00,
2013-04-02 11:26:00,32.0,12.6,29.78,NW,305,10.0,14.0,45,0.00,,,0.00,meteohub,2013-04-02 15:26:00,
2013-04-02 11:32:00,31.5,12.6,29.78,NW,324,3.0,17.0,45,0.00,,,0.00,meteohub,2013-04-02 15:32:00,
2013-04-02 11:37:00,30.9,12.6,29.78,NW,305,12.0,18.0,45,0.00,,,0.00,meteohub,2013-04-02 15:37:00,
2013-04-02 11:42:00,30.7,13.8,29.78,WNW,294,8.0,18.0,44,0.00,,,0.00,meteohub,2013-04-02 15:42:00,
2013-04-02 11:49:00,30.6,13.6,29.78,West,269,2.0,18.0,44,0.00,,,0.00,meteohub,2013-04-02 15:49:00,
2013-04-02 11:55:00,31.3,14.7,29.78,West,277,5.0,16.0,44,0.00,,,0.00,meteohub,2013-04-02 15:55:00,
2013-04-02 12:00:00,31.5,14.5,29.78,WSW,242,6.0,12.0,44,0.00,,,0.00,meteohub,2013-04-02 16:00:00,
2013-04-02 12:05:00,31.6,14.2,29.78,West,278,10.0,12.0,44,0.00,,,0.00,meteohub,2013-04-02 16:05:00,
2013-04-02 12:10:00,32.2,12.7,29.77,NW,312,8.0,19.0,44,0.00,,,0.00,meteohub,2013-04-02 16:10:00,
2013-04-02 12:15:00,31.8,10.8,29.77,SW,231,4.0,19.0,44,0.00,,,0.00,meteohub,2013-04-02 16:15:00,
2013-04-02 12:21:00,31.6,11.7,29.77,West,269,3.0,19.0,44,0.00,,,0.00,meteohub,2013-04-02 16:21:00,
2013-04-02 12:26:00,31.6,12.2,29.77,WNW,299,0.0,19.0,44,0.00,,,0.00,meteohub,2013-04-02 16:26:00,
2013-04-02 12:32:00,32.0,13.6,29.77,West,278,7.0,13.0,44,0.00,,,0.00,meteohub,2013-04-02 16:32:00,
2013-04-02 12:37:00,32.2,13.6,29.77,West,269,3.0,16.0,44,0.00,,,0.00,meteohub,2013-04-02 16:37:00,
2013-04-02 12:42:00,32.4,15.8,29.77,WNW,290,2.0,16.0,44,0.00,,,0.00,meteohub,2013-04-02 16:42:00,
2013-04-02 12:48:00,32.7,14.2,29.76,WNW,294,3.0,17.0,44,0.00,,,0.00,meteohub,2013-04-02 16:48:00,
2013-04-02 12:53:00,32.5,15.1,29.76,SW,232,3.0,17.0,44,0.00,,,0.00,meteohub,2013-04-02 16:53:00,
2013-04-02 12:58:00,32.4,13.5,29.76,SW,233,2.0,12.0,44,0.00,,,0.00,meteohub,2013-04-02 16:58:00,
2013-04-02 13:03:00,32.7,14.7,29.76,WSW,258,4.0,10.0,44,0.00,,,0.00,meteohub,2013-04-02 17:03:00,
2013-04-02 13:12:00,33.4,14.9,29.76,West,281,2.0,12.0,44,0.00,,,0.00,meteohub,2013-04-02 17:12:00,
2013-04-02 13:17:00,33.4,14.9,29.76,SSW,205,2.0,12.0,44,0.00,,,0.00,meteohub,2013-04-02 17:17:00,
2013-04-02 13:24:00,33.6,15.6,29.75,SW,219,3.0,12.0,44,0.00,,,0.00,meteohub,2013-04-02 17:24:00,
2013-04-02 13:29:00,34.5,15.8,29.75,West,273,4.0,8.0,44,0.00,,,0.00,meteohub,2013-04-02 17:29:00,
2013-04-02 13:35:00,34.0,15.4,29.75,WNW,287,4.0,8.0,44,0.00,,,0.00,meteohub,2013-04-02 17:35:00,
2013-04-02 13:40:00,33.3,14.2,29.75,West,270,6.0,12.0,44,0.00,,,0.00,meteohub,2013-04-02 17:40:00,
2013-04-02 13:45:00,32.5,13.1,29.75,SSW,194,7.0,12.0,44,0.00,,,0.00,meteohub,2013-04-02 17:45:00,
2013-04-02 13:50:00,32.5,12.6,29.75,SW,235,2.0,12.0,44,0.00,,,0.00,meteohub,2013-04-02 17:50:00,
2013-04-02 13:56:00,32.7,12.7,29.75,West,259,2.0,12.0,44,0.00,,,0.00,meteohub,2013-04-02 17:56:00,
2013-04-02 14:02:00,33.6,12.4,29.75,West,261,9.0,10.0,44,0.00,,,0.00,meteohub,2013-04-02 18:02:00,
2013-04-02 14:07:00,33.6,12.4,29.74,West,275,4.0,9.0,43,0.00,,,0.00,meteohub,2013-04-02 18:07:00,
2013-04-02 14:12:00,34.0,12.2,29.75,WNW,292,8.0,9.0,43,0.00,,,0.00,meteohub,2013-04-02 18:12:00,
2013-04-02 14:17:00,33.8,11.5,29.75,WNW,288,3.0,9.0,44,0.00,,,0.00,meteohub,2013-04-02 18:17:00,
2013-04-02 14:23:00,33.4,11.7,29.74,WNW,300,7.0,13.0,43,0.00,,,0.00,meteohub,2013-04-02 18:23:00,
2013-04-02 14:28:00,33.1,12.0,29.74,WNW,294,3.0,13.0,43,0.00,,,0.00,meteohub,2013-04-02 18:28:00,
2013-04-02 14:33:00,32.9,11.8,29.74,West,273,8.0,15.0,43,0.00,,,0.00,meteohub,2013-04-02 18:33:00,
2013-04-02 14:38:00,33.1,12.6,29.74,West,263,6.0,15.0,43,0.00,,,0.00,meteohub,2013-04-02 18:38:00,
2013-04-02 14:44:00,33.4,12.7,29.74,WNW,295,14.0,15.0,43,0.00,,,0.00,meteohub,2013-04-02 18:44:00,
2013-04-02 14:49:00,34.2,12.9,29.73,NW,305,8.0,11.0,43,0.00,,,0.00,meteohub,2013-04-02 18:49:00,
2013-04-02 14:54:00,34.5,13.3,29.73,WSW,254,1.0,14.0,43,0.00,,,0.00,meteohub,2013-04-02 18:54:00,
2013-04-02 14:59:00,34.5,12.0,29.73,West,267,4.0,16.0,43,0.00,,,0.00,meteohub,2013-04-02 18:59:00,
2013-04-02 15:04:00,34.3,12.6,29.73,West,275,2.0,16.0,43,0.00,,,0.00,meteohub,2013-04-02 19:04:00,
2013-04-02 15:10:00,34.2,12.4,29.73,NW,309,12.0,16.0,43,0.00,,,0.00,meteohub,2013-04-02 19:10:00,
2013-04-02 15:15:00,34.2,12.9,29.73,West,259,1.0,13.0,43,0.00,,,0.00,meteohub,2013-04-02 19:15:00,
2013-04-02 15:20:00,34.3,13.1,29.73,WNW,284,3.0,17.0,43,0.00,,,0.00,meteohub,2013-04-02 19:20:00,
2013-04-02 15:25:00,34.3,13.1,29.73,WSW,256,2.0,17.0,43,0.00,,,0.00,meteohub,2013-04-02 19:25:00,
2013-04-02 15:30:00,34.3,12.6,29.73,WNW,290,1.0,12.0,43,0.00,,,0.00,meteohub,2013-04-02 19:30:00,
2013-04-02 15:35:00,34.2,12.4,29.73,SSW,200,2.0,12.0,42,0.00,,,0.00,meteohub,2013-04-02 19:35:00,
2013-04-02 15:41:00,34.0,12.7,29.72,South,188,1.0,8.0,43,0.00,,,0.00,meteohub,2013-04-02 19:41:00,
2013-04-02 15:47:00,34.0,12.2,29.73,SSW,192,2.0,8.0,43,0.00,,,0.00,meteohub,2013-04-02 19:47:00,
2013-04-02 15:53:00,34.0,13.3,29.73,NW,315,4.0,14.0,42,0.00,,,0.00,meteohub,2013-04-02 19:53:00,
2013-04-02 15:58:00,34.3,14.2,29.72,WNW,297,1.0,14.0,42,0.00,,,0.00,meteohub,2013-04-02 19:58:00,
2013-04-02 16:04:00,34.5,13.3,29.72,WNW,297,3.0,14.0,42,0.00,,,0.00,meteohub,2013-04-02 20:04:00,
2013-04-02 16:09:00,34.3,13.1,29.73,West,280,5.0,15.0,42,0.00,,,0.00,meteohub,2013-04-02 20:09:00,
2013-04-02 16:18:00,34.2,13.5,29.73,WNW,290,2.0,15.0,42,0.00,,,0.00,meteohub,2013-04-02 20:18:00,
2013-04-02 16:23:00,34.2,14.0,29.73,West,281,5.0,14.0,42,0.00,,,0.00,meteohub,2013-04-02 20:23:00,
2013-04-02 16:29:00,34.2,12.9,29.73,WNW,303,5.0,14.0,42,0.00,,,0.00,meteohub,2013-04-02 20:29:00,
2013-04-02 16:34:00,34.2,12.9,29.73,WNW,282,1.0,13.0,42,0.00,,,0.00,meteohub,2013-04-02 20:34:00,
2013-04-02 16:39:00,34.2,14.0,29.73,WNW,294,2.0,13.0,42,0.00,,,0.00,meteohub,2013-04-02 20:39:00,
2013-04-02 16:44:00,34.3,14.2,29.73,WNW,292,3.0,13.0,42,0.00,,,0.00,meteohub,2013-04-02 20:44:00,
2013-04-02 16:49:00,34.3,13.6,29.73,WNW,288,3.0,11.0,42,0.00,,,0.00,meteohub,2013-04-02 20:49:00,
2013-04-02 16:54:00,34.3,13.1,29.73,WNW,287,6.0,8.0,42,0.00,,,0.00,meteohub,2013-04-02 20:54:00,
2013-04-02 17:00:00,34.2,12.9,29.73,SW,234,4.0,8.0,42,0.00,,,0.00,meteohub,2013-04-02 21:00:00,
2013-04-02 17:05:00,33.6,12.9,29.73,WNW,291,3.0,12.0,41,0.00,,,0.00,meteohub,2013-04-02 21:05:00,
2013-04-02 17:10:00,33.6,14.0,29.73,WNW,287,8.0,12.0,41,0.00,,,0.00,meteohub,2013-04-02 21:10:00,
2013-04-02 17:16:00,33.6,15.1,29.73,West,281,2.0,15.0,41,0.00,,,0.00,meteohub,2013-04-02 21:16:00,
2013-04-02 17:21:00,34.0,15.4,29.73,WSW,257,0.0,15.0,41,0.00,,,0.00,meteohub,2013-04-02 21:21:00,
2013-04-02 17:26:00,34.0,15.8,29.74,West,268,5.0,15.0,41,0.00,,,0.00,meteohub,2013-04-02 21:26:00,
2013-04-02 17:32:00,33.6,14.5,29.74,WNW,292,1.0,11.0,41,0.00,,,0.00,meteohub,2013-04-02 21:32:00,
2013-04-02 17:37:00,33.6,14.5,29.74,West,269,6.0,11.0,41,0.00,,,0.00,meteohub,2013-04-02 21:37:00,
2013-04-02 17:43:00,33.4,14.9,29.74,WNW,288,2.0,10.0,42,0.00,,,0.00,meteohub,2013-04-02 21:43:00,
2013-04-02 17:48:00,33.4,14.4,29.75,West,277,1.0,10.0,42,0.00,,,0.00,meteohub,2013-04-02 21:48:00,
2013-04-02 17:53:00,33.4,13.8,29.75,WSW,246,4.0,10.0,42,0.00,,,0.00,meteohub,2013-04-02 21:53:00,
2013-04-02 17:58:00,33.4,13.8,29.75,West,261,8.0,13.0,42,0.00,,,0.00,meteohub,2013-04-02 21:58:00,
2013-04-02 18:03:00,33.1,14.0,29.75,WNW,300,5.0,17.0,42,0.00,,,0.00,meteohub,2013-04-02 22:03:00,
2013-04-02 18:09:00,33.1,14.5,29.76,WNW,289,8.0,17.0,43,0.00,,,0.00,meteohub,2013-04-02 22:09:00,
2013-04-02 18:14:00,32.7,14.2,29.76,West,264,13.0,17.0,44,0.00,,,0.00,meteohub,2013-04-02 22:14:00,
2013-04-02 18:19:00,32.5,14.0,29.76,WNW,283,5.0,14.0,44,0.00,,,0.00,meteohub,2013-04-02 22:19:00,
2013-04-02 18:24:00,32.4,14.4,29.76,WNW,286,4.0,13.0,45,0.00,,,0.00,meteohub,2013-04-02 22:24:00,
2013-04-02 18:30:00,32.2,15.1,29.77,WNW,300,2.0,15.0,45,0.00,,,0.00,meteohub,2013-04-02 22:30:00,
2013-04-02 18:37:00,32.0,15.4,29.77,WNW,286,9.0,15.0,45,0.00,,,0.00,meteohub,2013-04-02 22:37:00,
2013-04-02 18:43:00,31.5,16.3,29.77,West,269,15.0,15.0,45,0.00,,,0.00,meteohub,2013-04-02 22:43:00,
2013-04-02 18:48:00,31.3,16.5,29.78,NW,305,5.0,18.0,45,0.00,,,0.00,meteohub,2013-04-02 22:48:00,
2013-04-02 18:53:00,31.1,17.2,29.78,West,263,4.0,18.0,45,0.00,,,0.00,meteohub,2013-04-02 22:53:00,
2013-04-02 18:59:00,30.7,16.9,29.78,West,281,3.0,18.0,44,0.00,,,0.00,meteohub,2013-04-02 22:59:00,
2013-04-02 19:04:00,30.6,17.1,29.78,WNW,297,4.0,8.0,44,0.00,,,0.00,meteohub,2013-04-02 23:04:00,
2013-04-02 19:09:00,30.2,17.2,29.78,WNW,290,1.0,10.0,44,0.00,,,0.00,meteohub,2013-04-02 23:09:00,
2013-04-02 19:14:00,29.8,17.2,29.78,West,266,2.0,10.0,44,0.00,,,0.00,meteohub,2013-04-02 23:14:00,
2013-04-02 19:19:00,29.7,17.1,29.79,West,273,1.0,10.0,44,0.00,,,0.00,meteohub,2013-04-02 23:19:00,
2013-04-02 19:25:00,29.7,17.1,29.79,WNW,286,1.0,10.0,44,0.00,,,0.00,meteohub,2013-04-02 23:25:00,
2013-04-02 19:31:00,29.7,16.3,29.80,WNW,285,2.0,10.0,44,0.00,,,0.00,meteohub,2013-04-02 23:31:00,
2013-04-02 19:36:00,29.8,18.0,29.80,WNW,287,1.0,12.0,44,0.00,,,0.00,meteohub,2013-04-02 23:36:00,
2013-04-02 19:41:00,29.8,15.6,29.80,WNW,288,4.0,12.0,44,0.00,,,0.00,meteohub,2013-04-02 23:41:00,
2013-04-02 19:46:00,29.8,14.7,29.80,West,269,8.0,17.0,43,0.00,,,0.00,meteohub,2013-04-02 23:46:00,
2013-04-02 19:51:00,29.8,14.4,29.80,WNW,296,3.0,17.0,43,0.00,,,0.00,meteohub,2013-04-02 23:51:00,
2013-04-02 19:57:00,29.8,14.0,29.80,West,277,0.0,17.0,43,0.00,,,0.00,meteohub,2013-04-02 23:57:00,
2013-04-02 20:02:00,29.8,14.4,29.81,WNW,284,1.0,16.0,43,0.00,,,0.00,meteohub,2013-04-03 00:02:00,
2013-04-02 20:07:00,29.8,14.4,29.81,WNW,283,2.0,16.0,43,0.00,,,0.00,meteohub,2013-04-03 00:07:00,
2013-04-02 20:13:00,29.7,13.8,29.81,WNW,283,3.0,16.0,42,0.00,,,0.00,meteohub,2013-04-03 00:13:00,
2013-04-02 20:18:00,29.7,13.8,29.81,West,265,2.0,10.0,42,0.00,,,0.00,meteohub,2013-04-03 00:18:00,
2013-04-02 20:24:00,29.7,13.3,29.81,West,273,3.0,10.0,42,0.00,,,0.00,meteohub,2013-04-03 00:24:00,
2013-04-02 20:29:00,29.5,13.6,29.81,West,272,5.0,10.0,42,0.00,,,0.00,meteohub,2013-04-03 00:29:00,
2013-04-02 20:34:00,29.5,13.1,29.81,West,267,2.0,10.0,42,0.00,,,0.00,meteohub,2013-04-03 00:34:00,
2013-04-02 20:40:00,29.5,13.6,29.82,West,267,2.0,17.0,42,0.00,,,0.00,meteohub,2013-04-03 00:40:00,
2013-04-02 20:46:00,29.3,13.8,29.82,WNW,292,0.0,8.0,42,0.00,,,0.00,meteohub,2013-04-03 00:46:00,
2013-04-02 20:52:00,29.1,13.6,29.82,West,271,0.0,7.0,42,0.00,,,0.00,meteohub,2013-04-03 00:52:00,
2013-04-02 20:58:00,28.9,13.5,29.82,SW,231,0.0,7.0,42,0.00,,,0.00,meteohub,2013-04-03 00:58:00,
2013-04-02 21:03:00,29.1,13.6,29.82,SW,236,1.0,8.0,42,0.00,,,0.00,meteohub,2013-04-03 01:03:00,
2013-04-02 21:08:00,29.1,13.3,29.82,WNW,282,4.0,11.0,42,0.00,,,0.00,meteohub,2013-04-03 01:08:00,
2013-04-02 21:13:00,29.1,13.3,29.81,West,271,4.0,11.0,41,0.00,,,0.00,meteohub,2013-04-03 01:13:00,
2013-04-02 21:19:00,29.1,12.7,29.82,NW,304,6.0,10.0,41,0.00,,,0.00,meteohub,2013-04-03 01:19:00,
2013-04-02 21:24:00,29.3,13.5,29.82,WSW,244,2.0,12.0,42,0.00,,,0.00,meteohub,2013-04-03 01:24:00,
2013-04-02 21:29:00,29.1,13.3,29.82,WNW,289,0.0,12.0,42,0.00,,,0.00,meteohub,2013-04-03 01:29:00,
2013-04-02 21:34:00,29.1,13.6,29.82,West,279,5.0,9.0,42,0.00,,,0.00,meteohub,2013-04-03 01:34:00,
2013-04-02 21:40:00,28.9,13.5,29.82,WSW,257,1.0,9.0,42,0.00,,,0.00,meteohub,2013-04-03 01:40:00,
2013-04-02 21:46:00,28.9,14.0,29.82,WSW,257,0.0,8.0,41,0.00,,,0.00,meteohub,2013-04-03 01:46:00,
2013-04-02 21:51:00,28.8,13.8,29.82,West,279,6.0,7.0,41,0.00,,,0.00,meteohub,2013-04-03 01:51:00,
2013-04-02 21:57:00,28.6,13.6,29.82,WNW,285,0.0,6.0,41,0.00,,,0.00,meteohub,2013-04-03 01:57:00,
2013-04-02 22:03:00,28.6,14.0,29.82,WNW,285,0.0,6.0,41,0.00,,,0.00,meteohub,2013-04-03 02:03:00,
2013-04-02 22:09:00,28.4,13.8,29.82,WNW,285,0.0,6.0,41,0.00,,,0.00,meteohub,2013-04-03 02:09:00,
2013-04-02 22:14:00,28.4,13.8,29.82,SSW,212,0.0,3.0,41,0.00,,,0.00,meteohub,2013-04-03 02:14:00,
2013-04-02 22:19:00,28.4,13.8,29.81,SSW,212,0.0,5.0,41,0.00,,,0.00,meteohub,2013-04-03 02:19:00,
2013-04-02 22:25:00,28.4,13.8,29.81,SSW,212,0.0,5.0,41,0.00,,,0.00,meteohub,2013-04-03 02:25:00,
2013-04-02 22:32:00,28.2,14.5,29.81,SSW,202,0.0,5.0,41,0.00,,,0.00,meteohub,2013-04-03 02:32:00,
2013-04-02 22:37:00,28.2,14.9,29.81,SSW,202,0.0,6.0,41,0.00,,,0.00,meteohub,2013-04-03 02:37:00,
2013-04-02 22:43:00,28.2,14.9,29.81,SSW,202,0.0,6.0,41,0.00,,,0.00,meteohub,2013-04-03 02:43:00,
2013-04-02 22:48:00,28.2,15.3,29.81,SSW,202,0.0,4.0,41,0.00,,,0.00,meteohub,2013-04-03 02:48:00,
2013-04-02 22:53:00,28.2,15.3,29.81,SSW,202,0.0,4.0,41,0.00,,,0.00,meteohub,2013-04-03 02:53:00,
2013-04-02 22:58:00,28.4,15.4,29.81,SSW,202,0.0,2.0,41,0.00,,,0.00,meteohub,2013-04-03 02:58:00,
2013-04-02 23:05:00,28.6,15.6,29.81,SSW,202,0.0,2.0,41,0.00,,,0.00,meteohub,2013-04-03 03:05:00,
2013-04-02 23:12:00,28.8,15.4,29.81,SSW,202,0.0,2.0,41,0.00,,,0.00,meteohub,2013-04-03 03:12:00,
2013-04-02 23:17:00,28.8,15.4,29.81,SSW,202,3.0,3.0,41,0.00,,,0.00,meteohub,2013-04-03 03:17:00,
2013-04-02 23:23:00,29.1,15.4,29.81,NNE,15,0.0,8.0,41,0.00,,,0.00,meteohub,2013-04-03 03:23:00,
2013-04-02 23:29:00,29.1,15.8,29.81,NNE,14,0.0,8.0,41,0.00,,,0.00,meteohub,2013-04-03 03:29:00,
2013-04-02 23:35:00,29.1,15.4,29.81,WNW,294,0.0,8.0,41,0.00,,,0.00,meteohub,2013-04-03 03:35:00,
2013-04-02 23:40:00,29.1,15.8,29.81,WNW,294,1.0,6.0,41,0.00,,,0.00,meteohub,2013-04-03 03:40:00,
2013-04-02 23:45:00,29.1,15.8,29.81,WSW,244,2.0,7.0,42,0.00,,,0.00,meteohub,2013-04-03 03:45:00,
2013-04-02 23:52:00,29.1,16.2,29.81,WSW,249,2.0,12.0,42,0.00,,,0.00,meteohub,2013-04-03 03:52:00,
2013-04-02 23:57:00,29.1,16.2,29.81,WNW,292,2.0,14.0,42,0.00,,,0.00,meteohub,2013-04-03 03:57:00,